Theta_e
341 343 344 344 344 344 344 341 339 339 339 339 338 338 338 338 338 338 336 336 336 335 335 334 334 334 336 334 334 333 333 333 333 335 335 335 333 333 334 334 333 333 332 332 331 330 329 327 327 324 322 320
338 340 343 343 342 342 342 341 340 339 339 339 338 337 336 335 336 337 336 336 335 334 334 335 334 333 333 332 332 332 331 331 333 333 334 333 332 333 333 333 333 332 332 331 329 328 327 326 325 323 322 319
336 336 339 340 340 340 341 340 339 339 337 337 336 334 332 332 332 332 334 336 335 334 333 333 334 333 333 332 332 331 330 330 332 332 332 331 331 331 332 332 332 331 330 329 327 326 324 323 321 320 318 318
335 333 333 336 337 338 339 338 336 335 333 332 330 329 328 327 325 324 324 325 326 330 331 330 328 332 332 331 331 330 330 330 331 331 330 328 328 327 328 330 330 329 329 327 326 324 322 320 318 315 314 316
337 334 332 332 332 333 334 333 332 332 327 324 324 324 323 323 322 321 322 322 323 324 324 324 325 331 331 331 330 329 329 329 329 329 328 327 325 325 323 321 322 324 326 325 324 321 318 316 313 312 313 315
337 334 334 335 334 334 331 328 326 325 325 325 323 321 322 322 321 320 320 320 324 322 324 324 323 326 330 330 330 329 328 329 328 328 327 325 324 322 320 315 310 312 318 320 319 317 315 312 311 311 311 312
336 336 336 336 337 335 327 327 325 324 323 322 322 322 321 320 320 320 319 320 321 321 321 322 322 324 328 330 329 329 329 328 327 327 325 324 322 320 316 309 308 309 309 310 314 312 311 310 309 310 310 311
336 337 337 337 336 334 331 327 325 323 322 322 321 321 320 320 320 319 319 321 322 321 320 321 321 323 325 326 324 324 325 326 326 324 323 322 319 313 309 306 307 308 308 309 309 309 309 308 308 308 308 309
336 338 338 337 335 334 331 329 326 323 322 321 320 320 320 320 319 318 318 317 317 317 318 317 319 320 319 320 318 319 316 316 313 309 307 307 306 305 306 306 306 307 307 308 308 308 308 307 307 307 308 309
336 338 337 337 335 334 333 332 329 325 322 321 320 320 320 319 318 317 317 316 315 315 316 315 317 316 315 314 314 313 313 307 306 305 304 304 304 303 304 304 304 305 306 306 306 307 307 307 306 306 307 309
337 338 338 337 336 334 334 335 331 327 324 321 321 322 320 319 318 317 316 315 314 314 314 314 314 313 313 314 313 311 308 306 306 304 303 302 302 303 303 303 303 304 304 304 305 305 306 306 306 306 308 309
336 338 338 338 334 335 333 335 333 330 325 323 323 324 320 318 318 317 316 315 313 313 312 313 312 312 311 311 311 307 306 306 305 303 302 302 302 303 302 302 302 303 303 303 304 305 305 305 305 306 307 308
337 338 338 337 336 335 331 335 335 334 329 325 325 325 320 318 317 317 316 314 313 311 310 310 309 309 310 310 309 305 306 306 304 302 302 301 301 301 301 300 301 301 301 302 302 303 304 304 305 306 307 307
338 338 337 337 336 336 332 336 336 335 333 328 327 327 322 319 317 317 316 314 312 310 309 308 307 307 307 308 305 304 307 305 303 302 301 300 300 300 300 300 300 300 300 300 300 301 302 302 303 305 306 306
337 337 337 337 337 337 335 336 335 334 334 331 329 329 324 321 318 317 316 314 312 309 308 307 307 306 306 306 304 305 308 305 303 302 301 300 299 299 299 298 298 299 299 298 299 299 299 300 302 303 304 304
335 336 337 337 337 336 336 336 336 334 334 332 332 331 327 323 320 317 316 314 312 308 307 307 306 306 305 305 303 308 307 304 303 301 300 298 298 298 298 296 296 297 298 297 297 297 297 297 299 298 300 301
334 335 336 336 336 336 335 336 336 334 334 334 333 332 329 326 322 318 317 315 313 308 308 307 306 306 305 305 305 308 306 304 302 300 298 297 297 296 296 295 295 296 295 295 294 295 294 295 295 296 297 298
333 334 334 334 336 334 335 336 335 334 335 334 334 333 332 329 325 321 321 317 313 310 309 309 307 306 305 305 308 307 306 304 302 299 298 296 296 297 296 295 294 294 293 291 292 292 292 293 294 295 295 295
332 332 332 331 332 333 334 334 335 335 335 334 334 333 333 331 328 324 324 321 316 311 311 311 309 308 307 308 309 307 306 304 301 299 297 296 296 296 296 295 294 294 293 293 292 291 292 292 293 294 294 294
331 331 331 330 326 330 331 332 333 334 334 335 334 333 333 332 331 327 326 325 321 314 313 313 311 309 308 310 311 310 307 305 302 299 298 297 297 295 294 294 293 293 293 293 291 290 290 291 292 293 293 293
328 328 329 329 328 328 328 330 331 332 333 333 334 334 333 333 331 329 328 327 325 321 318 317 314 313 311 312 312 310 308 306 304 300 299 298 297 297 294 293 292 292 292 292 291 289 289 289 291 291 292 292
326 326 327 327 327 325 326 326 328 329 331 332 333 333 333 333 332 330 330 329 327 326 323 321 317 315 314 313 312 310 308 307 305 302 300 298 297 297 295 293 292 292 292 292 291 290 289 289 289 289 291 292
322 321 323 323 323 323 324 324 324 326 328 331 332 332 333 333 332 330 331 330 328 327 326 325 320 317 315 313 312 310 308 307 304 302 300 298 297 296 295 294 293 292 292 291 290 290 288 287 287 288 289 290
320 319 320 320 315 320 321 323 322 323 326 327 330 331 332 332 332 331 331 331 330 328 327 326 324 318 316 313 312 310 308 306 304 302 300 298 296 295 294 294 293 293 291 290 289 289 287 286 287 288 288 287
321 319 316 314 320 322 322 322 321 321 322 324 327 329 331 331 332 332 331 330 330 329 325 327 326 320 316 314 312 311 309 308 305 303 301 299 297 295 293 292 293 292 292 289 288 288 287 286 288 291 288 287
322 322 322 321 320 321 320 318 318 320 320 322 322 324 328 329 331 332 331 328 330 329 329 327 326 322 317 314 312 311 310 308 305 303 302 299 296 296 294 292 293 292 292 290 288 286 285 285 287 290 288 287
322 323 321 320 315 318 309 310 313 313 314 315 319 320 323 327 329 330 331 330 328 329 329 328 326 324 320 315 312 311 310 308 306 304 302 299 297 294 294 293 293 292 293 290 289 289 286 284 284 287 287 286
320 319 314 313 308 311 314 311 307 309 309 313 315 317 319 323 327 329 330 330 329 328 329 328 327 326 322 317 314 312 310 308 306 304 303 300 299 297 293 292 291 293 293 291 289 286 288 286 285 283 284 284
313 312 309 306 306 306 307 307 306 307 308 312 316 318 317 321 323 327 328 329 330 327 329 328 327 326 324 320 316 314 312 309 308 305 303 301 299 297 296 292 292 292 292 292 294 291 285 285 284 284 285 284
313 314 314 309 310 309 307 310 308 311 313 312 314 317 319 315 319 323 325 327 328 328 327 328 327 325 323 321 318 315 314 311 309 306 303 301 300 298 298 296 292 291 292 292 292 293 295 290 289 287 285 284
312 312 312 313 315 314 313 313 312 310 307 310 309 308 314 318 317 319 322 323 325 326 325 326 326 326 324 321 319 315 315 312 309 308 305 302 301 300 299 297 293 292 291 292 292 293 293 294 293 291 286 285
Wind_Speed
10 11 13 13 13 12 13 14 14 13 13 13 13 12 12 10 8 9 10 10 10 11 11 11 11 13 15 14 14 13 14 14 14 13 13 14 15 15 15 16 16 16 16 15 14 13 12 11 10 10 8 5
10 11 13 12 12 12 12 13 13 13 13 12 12 11 10 9 9 9 9 9 10 10 9 9 9 12 12 13 14 13 13 14 13 11 13 14 14 15 16 16 15 15 15 15 14 13 12 12 10 10 8 4
7 11 12 13 12 12 13 13 13 12 12 12 12 12 11 10 10 10 10 10 9 8 9 9 8 11 11 13 13 13 13 13 12 11 13 14 15 15 16 15 15 15 14 14 13 13 12 11 10 11 7 4
4 9 11 11 12 12 13 13 13 13 13 12 12 12 12 12 10 10 9 11 9 10 10 10 8 11 12 13 13 13 13 13 12 12 14 15 15 15 15 15 15 14 14 13 13 12 12 10 10 7 5 4
5 7 10 9 11 12 12 12 12 12 12 11 11 10 11 10 7 6 6 7 6 10 7 10 11 12 13 14 13 14 14 14 12 13 14 14 14 14 14 12 13 13 13 13 12 12 11 10 7 5 5 4
5 5 7 6 7 7 9 10 10 9 7 7 6 9 8 6 6 5 5 5 6 5 6 8 11 11 13 14 13 14 15 15 14 14 14 14 14 14 12 11 7 7 10 12 12 11 11 8 5 5 5 5
6 7 5 6 7 7 7 7 7 6 6 5 6 5 5 5 5 5 4 4 5 5 7 7 9 10 11 12 11 12 13 14 14 15 14 14 13 12 12 8 6 6 6 6 10 9 8 6 6 5 6 5
6 5 5 5 6 7 6 6 6 6 6 5 5 5 5 5 4 4 4 5 7 6 4 6 8 8 9 9 9 11 8 11 11 12 12 11 10 8 5 5 6 6 6 6 6 6 6 5 5 6 5 5
7 6 6 5 6 6 6 6 5 5 5 5 5 5 5 5 4 4 5 5 5 4 4 4 4 4 5 4 5 6 4 4 4 5 5 5 6 5 5 6 5 5 6 5 6 6 5 5 5 5 5 5
8 8 7 7 8 7 6 7 6 6 5 5 5 5 5 6 6 5 5 5 5 4 4 4 4 4 4 4 3 3 4 4 4 4 5 5 6 5 5 6 5 5 5 5 5 6 5 6 6 5 5 5
7 7 7 7 7 7 7 7 8 7 6 6 6 6 6 7 6 6 6 6 6 6 5 5 5 5 5 5 5 4 5 4 4 5 5 5 5 5 5 6 5 6 6 5 5 5 6 6 5 5 5 5
8 7 8 8 8 8 8 8 8 8 7 7 7 7 7 7 7 7 6 6 6 6 5 6 5 5 5 5 5 4 6 6 5 5 6 5 5 6 5 6 5 5 6 5 4 5 5 5 5 5 5 5
8 8 8 8 9 9 8 7 8 8 8 7 7 7 8 7 7 6 6 7 6 6 6 6 5 5 5 5 5 4 5 5 6 5 6 6 6 6 6 5 5 5 5 5 5 5 5 5 5 5 6 5
9 9 9 9 9 8 9 8 7 8 8 7 7 7 8 8 8 8 8 7 6 7 7 6 5 5 6 6 5 5 5 5 5 6 6 6 6 6 6 5 4 5 5 5 4 4 5 4 5 5 6 6
9 9 9 9 9 8 9 9 7 7 7 8 8 8 9 8 8 7 7 7 7 6 6 6 7 6 6 6 6 5 5 5 6 5 6 6 7 6 6 5 4 5 6 5 5 4 5 5 5 5 5 6
10 10 10 9 8 9 9 9 8 8 8 8 8 8 9 9 8 7 7 8 7 7 7 7 7 6 7 7 6 5 5 5 5 6 5 5 5 5 6 6 4 3 6 5 5 4 5 3 5 5 4 7
10 9 9 9 9 8 9 9 8 8 9 8 8 8 10 10 10 8 8 8 9 8 7 7 7 6 7 7 6 5 6 6 5 6 6 5 5 5 6 6 5 4 4 5 4 4 4 5 5 4 4 6
9 10 9 8 9 8 9 9 9 9 8 9 8 8 10 10 11 10 9 9 9 8 8 7 7 8 7 7 5 5 6 7 6 6 7 6 6 5 7 6 5 6 5 3 3 4 3 5 5 5 5 4
11 9 9 9 8 8 9 9 9 9 9 8 8 9 9 11 10 11 11 11 10 10 9 9 8 8 8 8 7 7 6 7 5 7 8 7 7 5 5 5 5 5 6 6 5 4 3 4 4 5 5 3
11 10 9 9 8 8 9 8 9 8 9 9 9 9 9 11 11 11 11 10 10 10 10 10 9 9 8 10 8 7 8 7 7 6 7 6 8 8 5 6 5 4 6 5 5 3 4 4 4 5 4 5
9 9 9 9 9 9 9 9 9 8 7 8 9 9 9 10 10 11 11 10 11 9 10 9 9 9 10 9 9 9 9 9 8 8 7 6 5 7 7 7 7 5 5 5 4 3 3 3 5 4 4 4
9 9 9 8 8 8 9 8 8 8 8 9 8 8 10 10 10 10 11 11 11 10 10 10 10 9 10 9 9 9 9 9 9 9 9 8 5 6 7 7 8 7 5 5 5 3 2 1 2 4 5 3
7 7 7 6 7 8 8 7 7 8 9 9 8 9 9 10 10 10 11 11 11 10 9 9 9 9 11 10 10 9 9 8 8 8 8 10 7 5 5 7 7 8 6 5 4 4 2 2 1 1 1 4
7 7 8 8 6 7 9 8 8 8 9 8 9 9 10 10 10 10 11 12 12 11 10 9 9 9 9 10 10 11 10 9 9 11 11 9 10 9 5 4 6 8 8 6 6 4 4 2 1 0 0 1
10 10 7 6 11 13 10 10 8 8 8 8 8 9 10 10 10 10 10 10 11 12 10 10 9 10 10 10 10 11 12 12 12 12 12 11 10 12 9 6 7 8 9 10 5 4 3 2 2 1 0 1
10 11 11 11 11 10 8 8 9 10 8 8 7 8 9 9 9 11 11 9 9 10 11 10 9 10 11 11 11 11 11 13 13 14 12 10 7 5 11 9 10 9 10 3 7 7 2 1 1 1 1 2
11 10 7 8 5 7 4 3 4 4 4 5 7 8 9 9 10 10 11 11 10 10 11 12 10 10 9 11 10 9 9 9 11 10 11 14 13 10 5 6 8 12 11 8 6 5 6 2 3 2 2 3
8 6 4 2 2 4 5 5 4 3 2 5 6 9 8 9 11 11 11 12 12 10 10 10 12 10 9 10 11 11 11 12 12 12 11 11 11 13 12 7 9 10 10 8 13 7 7 4 2 1 10 7
5 5 4 3 3 3 2 2 3 4 5 7 8 7 9 11 9 10 11 10 12 13 12 10 9 10 12 12 12 12 12 12 14 14 14 15 13 14 14 11 9 11 12 10 10 9 7 2 2 9 1 8
7 8 8 7 7 6 5 7 6 11 14 9 9 12 6 4 8 9 9 10 10 10 11 13 12 9 8 11 12 13 14 13 11 13 13 15 14 15 12 14 12 12 12 9 11 8 1 3 7 8 5 7
8 7 8 11 12 10 11 12 10 7 4 6 6 3 6 7 6 8 9 9 9 9 9 9 9 12 12 10 9 11 10 11 13 12 13 11 12 13 12 10 12 14 12 8 9 9 7 1 1 3 10 7
Wind_Direction
142 138 138 143 141 136 131 130 128 126 125 123 121 120 117 106 93 91 97 108 118 118 115 118 118 118 115 117 113 114 117 118 110 95 85 76 74 73 75 77 80 80 78 75 72 66 61 57 50 54 53 50
143 140 142 144 140 138 136 134 132 131 131 128 122 115 107 101 98 98 102 104 105 105 103 111 116 112 113 116 116 114 114 116 102 96 82 77 74 75 76 79 79 79 79 75 72 67 60 56 47 45 44 42
146 142 144 144 144 141 139 137 136 132 126 125 124 120 113 105 98 95 94 87 76 76 79 78 94 109 108 112 111 110 112 113 104 86 78 75 72 72 74 76 77 77 74 72 69 67 61 54 49 43 40 26
143 144 147 148 145 143 142 140 137 132 131 132 129 125 121 117 113 110 109 109 108 107 105 104 109 110 118 121 119 115 116 114 101 85 80 74 69 66 66 67 69 71 73 72 68 65 62 56 54 48 34 24
140 151 147 147 145 143 142 140 139 134 130 129 129 126 124 119 117 120 121 120 126 121 123 128 127 129 132 132 131 129 127 123 114 106 95 84 76 72 66 58 57 58 66 67 67 64 61 59 56 47 43 33
142 146 150 148 145 140 141 139 133 132 136 135 132 131 126 125 128 127 128 130 128 124 128 129 133 134 137 138 139 139 137 133 131 121 111 100 93 88 80 71 66 55 53 56 60 59 59 57 50 39 44 41
140 154 151 152 150 142 141 142 139 141 140 142 142 142 133 132 135 132 130 131 131 132 131 133 134 134 137 142 144 138 139 138 135 126 117 110 106 102 99 95 99 88 75 58 48 51 51 53 41 40 37 38
154 158 151 149 149 133 145 150 149 148 150 150 149 142 140 132 125 119 116 113 111 111 112 124 124 127 132 131 131 138 136 137 132 120 110 105 98 92 89 96 98 98 96 88 81 73 62 57 45 44 36 28
163 163 155 157 151 147 147 157 152 154 156 158 153 149 143 133 123 117 115 117 108 102 109 112 117 117 118 125 136 132 118 92 78 70 74 70 70 68 74 75 71 84 85 81 86 82 76 69 58 51 38 29
171 170 166 161 165 156 162 163 159 161 166 164 158 153 145 132 128 130 130 130 129 123 125 125 127 130 129 126 134 111 102 78 76 64 58 63 63 52 61 67 61 53 66 77 73 75 69 67 60 53 42 40
171 181 173 169 171 166 171 168 165 171 172 172 165 159 153 146 148 147 150 147 148 151 149 150 153 152 153 150 147 137 121 102 92 89 85 79 78 74 76 74 73 74 67 62 74 70 69 67 64 56 52 43
178 182 176 175 169 182 180 173 175 175 175 171 173 166 163 159 157 158 159 163 159 163 159 165 167 162 159 158 160 143 128 121 111 105 103 105 96 91 83 91 83 86 87 83 81 84 80 80 72 64 61 59
182 184 181 176 177 185 180 184 181 176 172 176 177 171 167 164 162 165 165 168 169 160 170 166 167 166 168 166 167 146 135 133 128 120 122 117 113 110 105 101 98 98 90 93 92 98 93 91 83 76 70 58
185 187 186 184 183 184 178 191 182 176 180 181 177 175 176 174 170 172 171 171 167 168 172 171 167 168 171 173 172 155 145 148 136 136 127 121 122 119 118 109 117 108 102 92 93 91 97 81 89 87 82 70
191 187 191 188 185 184 184 187 182 183 185 184 185 179 179 177 178 171 173 170 171 174 170 171 171 175 171 177 178 166 148 149 144 140 139 143 139 134 125 121 125 117 109 106 94 92 88 90 85 84 90 82
193 192 192 188 187 188 185 185 186 185 189 192 187 181 181 179 180 176 175 173 174 174 173 176 177 174 174 185 177 165 151 148 144 137 129 123 123 124 118 117 104 100 115 107 106 99 93 84 85 77 86 88
194 193 191 189 191 189 182 188 186 187 190 193 189 184 183 182 180 181 176 179 177 176 178 177 174 177 186 183 172 162 155 143 138 124 120 109 113 110 109 110 99 84 86 108 108 99 94 100 92 81 77 94
193 193 192 192 191 188 185 189 192 192 189 188 191 190 188 187 183 184 183 176 180 177 177 179 182 181 183 181 165 156 154 149 150 138 134 138 129 135 134 132 133 125 106 86 91 95 105 90 101 100 85 79
194 190 189 188 191 190 190 191 195 192 190 189 192 192 193 192 187 189 186 182 178 181 179 181 185 190 188 175 163 161 167 152 153 146 148 151 138 140 131 131 139 135 133 135 126 126 120 112 108 98 109 100
193 190 188 187 188 190 193 195 197 193 191 190 191 194 197 196 192 191 191 185 183 182 184 181 186 191 186 179 169 169 165 155 157 157 150 165 151 144 149 139 130 130 133 132 130 127 117 124 113 116 119 117
192 188 190 188 186 189 190 196 199 195 191 194 193 192 198 196 195 194 192 189 187 189 190 186 186 188 187 180 177 171 170 170 164 157 156 165 173 154 151 151 140 133 133 130 120 116 119 130 131 125 133 131
189 191 190 191 191 188 192 198 196 195 193 199 199 197 199 195 197 194 195 192 191 194 194 191 185 185 184 181 181 176 174 176 167 164 161 161 170 160 151 156 152 146 134 127 120 97 80 70 101 136 134 137
182 182 193 194 191 198 203 201 199 193 199 199 197 201 199 197 197 198 196 194 194 195 192 194 193 185 181 181 181 177 179 173 168 163 166 162 158 154 163 156 151 141 134 122 109 95 40 28 25 33 128 136
176 179 187 193 207 217 212 204 201 203 203 195 201 199 197 199 199 197 201 196 194 198 193 192 189 187 183 185 181 179 178 176 174 170 165 170 160 153 131 126 138 137 126 102 86 76 56 35 24 10 51 152
182 187 187 201 202 211 204 204 200 205 205 203 204 198 200 199 200 197 200 205 196 196 196 198 190 181 184 186 187 187 185 178 180 179 177 170 167 159 150 151 156 157 139 128 83 53 52 38 6 13 357 220
194 196 197 194 205 203 196 196 198 208 205 207 201 202 201 201 201 200 201 201 206 202 195 201 199 188 183 184 190 193 190 183 181 179 175 159 155 180 163 164 171 167 137 143 161 152 154 13 353 2 341 238
202 203 200 195 196 189 195 225 224 220 202 194 200 203 203 201 201 202 203 200 203 207 203 199 200 197 185 186 184 187 193 188 181 187 182 172 169 164 182 158 176 177 183 151 132 104 97 215 168 245 263 256
205 196 181 156 134 171 161 188 184 189 195 203 208 214 203 207 203 201 203 199 199 205 208 207 199 193 191 191 185 188 189 188 190 180 184 190 188 165 163 172 188 200 196 157 138 157 187 160 166 296 239 201
174 140 135 100 60 69 82 44 142 183 227 213 211 211 208 211 199 203 203 202 201 198 204 206 211 202 195 191 192 193 194 194 195 187 185 184 185 183 174 176 183 197 204 199 200 144 124 102 190 219 148 143
168 180 175 163 171 190 195 212 194 205 212 203 205 213 209 201 206 207 207 203 205 209 203 200 201 203 207 203 197 196 194 193 192 193 192 192 188 190 190 179 172 191 210 209 220 226 224 137 176 175 174 133
173 182 189 194 201 205 206 216 226 228 224 201 216 199 203 211 207 213 211 211 208 208 213 212 205 201 194 202 208 197 196 198 196 194 195 188 193 194 182 167 183 191 192 202 242 239 240 215 62 133 140 196